Weather WX

World > North America > United States > Ohio

Kimbolton, Ohio Regional Weather

Lat: 40.15N, Lon: 81.57W
Wx Zone: OHZ058
Warning FLW WEATHER ALERT - FLASH FLOOD WATCH (More Info. Click Here) Warning
Feedback

Kimbolton, OH Regional Weather

Expires:201906180200;;655253
ASUS41 KCLE 180112
RWRCLE
OHIO REGIONAL WEATHER ROUNDUP
NATIONAL WEATHER SERVICE WILMINGTON, OH
900 PM EDT MON JUN 17 2019

NOTE: "FAIR" INDICATES FEW OR NO CLOUDS BELOW 12,000 FEET WITH NO
SIGNIFICANT WEATHER AND/OR OBSTRUCTIONS TO VISIBILITY.


OHZ036-037-039>041-045>050-054>059-063>069-073>076-082>088-180200-
  CENTRAL AND SOUTHEAST OHIO
  
CITY           SKY/WX    TMP DP  RH WIND       PRES   REMARKS
COLUMBUS       LGT RAIN  73  70  90 CALM      29.95R FOG              
OSU AIRPORT    RAIN      71  69  93 CALM      29.95S FOG              
BOLTON FIELD   HVY RAIN  71  70  97 NW5       29.96S                  
RICKENBACK AFB RAIN      70  68  96 SE7       29.94S                  
NEWARK         LGT RAIN  75  70  84 S3        29.95S                  
MARION         LGT RAIN  69  66  90 NE5       29.98S FOG              
LANCASTER      MOCLDY    70  67  90 S3        29.96F                  
ZANESVILLE     MOCLDY    73  69  87 S3        29.96F                  
NEW PHILLY     CLOUDY    74  68  81 CALM      29.97S                  
$$
  

SKY/WX - Weather  TMP - Temperature  DP - Dew Point  RH - Relative Humidity
WIND - Wind Direction/Speed PRES - Barometric Pressure VSB - Visibility
WCI - Wind Chill Index E13G22 Wind - East Wind 13 mph/Gusts of 22 mph